Time,TemperatureF,DewpointF,PressureIn,WindDirection,WindDirectionDegrees,WindSpeedMPH,WindSpeedGustMPH,Humidity,HourlyPrecipIn,Conditions,Clouds,dailyrainin,SoftwareType,DateUTC
2013-03-29 00:03:00,72.0,-99.9,30.06,NE,39,4.0,5.0,-999,-99.99,,,-99.99,,2013-03-29 10:03:00,
2013-03-29 00:12:00,72.0,-99.9,30.06,NE,44,2.0,5.0,-999,-99.99,,,-99.99,,2013-03-29 10:12:00,
2013-03-29 00:23:00,72.0,-99.9,30.06,North,2,2.0,5.0,-999,-99.99,,,-99.99,,2013-03-29 10:23:00,
2013-03-29 00:33:00,72.0,-99.9,30.06,NE,34,2.0,4.0,-999,-99.99,,,-99.99,,2013-03-29 10:33:00,
2013-03-29 00:42:00,72.0,-99.9,30.06,ENE,68,2.0,9.0,-999,-99.99,,,-99.99,,2013-03-29 10:42:00,
2013-03-29 00:53:00,72.0,-99.9,30.06,ENE,59,-999.0,4.0,-999,-99.99,,,-99.99,,2013-03-29 10:53:00,
2013-03-29 01:04:00,72.0,-99.9,30.05,NE,41,2.0,6.0,-999,-99.99,,,-99.99,,2013-03-29 11:04:00,
2013-03-29 01:12:00,72.0,-99.9,30.06,NNE,18,2.0,5.0,-999,-99.99,,,-99.99,,2013-03-29 11:12:00,
2013-03-29 01:23:00,72.0,-99.9,30.05,West,275,2.0,7.0,-999,-99.99,,,-99.99,,2013-03-29 11:23:00,
2013-03-29 01:33:00,72.0,-99.9,30.05,SSW,207,-999.0,2.0,-999,-99.99,,,-99.99,,2013-03-29 11:33:00,
2013-03-29 01:43:00,72.0,-99.9,30.05,NNW,333,-999.0,3.0,-999,-99.99,,,-99.99,,2013-03-29 11:43:00,
2013-03-29 01:53:00,71.0,-99.9,30.05,NNE,32,1.0,3.0,-999,-99.99,,,-99.99,,2013-03-29 11:53:00,
2013-03-29 02:03:00,71.0,-99.9,30.04,ENE,66,-999.0,2.0,-999,-99.99,,,-99.99,,2013-03-29 12:03:00,
2013-03-29 02:13:00,71.0,-99.9,30.04,NE,37,0.0,1.0,-999,-99.99,,,-99.99,,2013-03-29 12:13:00,
2013-03-29 02:22:00,71.0,-99.9,30.04,East,94,2.0,6.0,-999,-99.99,,,-99.99,,2013-03-29 12:22:00,
2013-03-29 02:33:00,71.0,-99.9,30.03,NNW,344,1.0,4.0,-999,-99.99,,,-99.99,,2013-03-29 12:33:00,
2013-03-29 02:43:00,71.0,-99.9,30.03,NW,326,-999.0,2.0,-999,-99.99,,,-99.99,,2013-03-29 12:43:00,
2013-03-29 02:53:00,71.0,-99.9,30.03,NE,55,0.0,1.0,-999,-99.99,,,-99.99,,2013-03-29 12:53:00,
2013-03-29 03:03:00,71.0,-99.9,30.03,NNE,18,0.0,3.0,-999,-99.99,,,-99.99,,2013-03-29 13:03:00,
2013-03-29 03:13:00,71.0,-99.9,30.03,South,173,3.0,5.0,-999,-99.99,,,-99.99,,2013-03-29 13:13:00,
2013-03-29 03:23:00,72.0,-99.9,30.02,East,99,1.0,6.0,-999,-99.99,,,-99.99,,2013-03-29 13:23:00,
2013-03-29 03:33:00,72.0,-99.9,30.02,North,-999,-999.0,3.0,-999,-99.99,,,-99.99,,2013-03-29 13:33:00,
2013-03-29 03:43:00,71.0,-99.9,30.01,South,190,3.0,5.0,-999,-99.99,,,-99.99,,2013-03-29 13:43:00,
2013-03-29 03:53:00,71.0,-99.9,30.02,South,176,2.0,4.0,-999,-99.99,,,-99.99,,2013-03-29 13:53:00,
2013-03-29 04:03:00,71.0,-99.9,30.01,East,95,1.0,2.0,-999,-99.99,,,-99.99,,2013-03-29 14:03:00,
2013-03-29 04:12:00,71.0,-99.9,30.01,SE,146,2.0,2.0,-999,-99.99,,,-99.99,,2013-03-29 14:12:00,
2013-03-29 04:22:00,71.0,-99.9,30.01,WSW,247,2.0,3.0,-999,-99.99,,,-99.99,,2013-03-29 14:22:00,
2013-03-29 04:33:00,71.0,-99.9,30.01,North,357,1.0,3.0,-999,-99.99,,,-99.99,,2013-03-29 14:33:00,
2013-03-29 04:42:00,71.0,-99.9,30.01,SE,136,2.0,3.0,-999,-99.99,,,-99.99,,2013-03-29 14:42:00,
2013-03-29 04:53:00,70.0,-99.9,30.01,SE,137,0.0,2.0,-999,-99.99,,,-99.99,,2013-03-29 14:53:00,
2013-03-29 05:03:00,71.0,-99.9,30.01,SE,125,3.0,4.0,-999,-99.99,,,-99.99,,2013-03-29 15:03:00,
2013-03-29 05:12:00,71.0,-99.9,30.01,SE,142,2.0,3.0,-999,-99.99,,,-99.99,,2013-03-29 15:12:00,
2013-03-29 05:22:00,71.0,-99.9,30.01,SSE,159,2.0,4.0,-999,-99.99,,,-99.99,,2013-03-29 15:22:00,
2013-03-29 05:33:00,71.0,-99.9,30.02,NE,34,2.0,4.0,-999,-99.99,,,-99.99,,2013-03-29 15:33:00,
2013-03-29 05:43:00,71.0,-99.9,30.02,North,8,3.0,5.0,-999,-99.99,,,-99.99,,2013-03-29 15:43:00,
2013-03-29 05:53:00,71.0,-99.9,30.02,ESE,123,1.0,2.0,-999,-99.99,,,-99.99,,2013-03-29 15:53:00,
2013-03-29 06:03:00,71.0,-99.9,30.03,SE,136,1.0,4.0,-999,-99.99,,,-99.99,,2013-03-29 16:03:00,
2013-03-29 06:13:00,71.0,-99.9,30.03,NW,308,3.0,4.0,-999,-99.99,,,-99.99,,2013-03-29 16:13:00,
2013-03-29 06:23:00,71.0,-99.9,30.03,North,2,1.0,3.0,-999,-99.99,,,-99.99,,2013-03-29 16:23:00,
2013-03-29 06:33:00,71.0,-99.9,30.04,North,5,2.0,4.0,-999,-99.99,,,-99.99,,2013-03-29 16:33:00,
2013-03-29 06:43:00,71.0,-99.9,30.04,ENE,57,1.0,2.0,-999,-99.99,,,-99.99,,2013-03-29 16:43:00,
2013-03-29 06:53:00,71.0,-99.9,30.04,NE,35,1.0,4.0,-999,-99.99,,,-99.99,,2013-03-29 16:53:00,
2013-03-29 07:04:00,71.0,-99.9,30.05,NNE,16,1.0,2.0,-999,-99.99,,,-99.99,,2013-03-29 17:04:00,
2013-03-29 07:12:00,71.0,-99.9,30.05,East,92,2.0,4.0,-999,-99.99,,,-99.99,,2013-03-29 17:12:00,
2013-03-29 07:23:00,71.0,-99.9,30.05,ESE,104,3.0,5.0,-999,-99.99,,,-99.99,,2013-03-29 17:23:00,
2013-03-29 07:34:00,71.0,-99.9,30.05,NE,55,1.0,3.0,-999,-99.99,,,-99.99,,2013-03-29 17:34:00,
2013-03-29 07:44:00,71.0,-99.9,30.06,East,97,3.0,6.0,-999,-99.99,,,-99.99,,2013-03-29 17:44:00,
2013-03-29 07:53:00,71.0,-99.9,30.07,SE,124,4.0,7.0,-999,-99.99,,,-99.99,,2013-03-29 17:53:00,
2013-03-29 08:02:00,70.0,-99.9,30.07,NE,53,2.0,6.0,-999,-99.99,,,-99.99,,2013-03-29 18:02:00,
2013-03-29 08:13:00,70.0,-99.9,30.07,NE,54,2.0,6.0,-999,-99.99,,,-99.99,,2013-03-29 18:13:00,
2013-03-29 08:23:00,70.0,-99.9,30.07,NNW,335,3.0,5.0,-999,-99.99,,,-99.99,,2013-03-29 18:23:00,
2013-03-29 08:33:00,71.0,-99.9,30.07,NNW,344,4.0,6.0,-999,-99.99,,,-99.99,,2013-03-29 18:33:00,
2013-03-29 08:43:00,71.0,-99.9,30.07,ENE,57,4.0,7.0,-999,-99.99,,,-99.99,,2013-03-29 18:43:00,
2013-03-29 08:53:00,71.0,-99.9,30.07,ENE,63,4.0,8.0,-999,-99.99,,,-99.99,,2013-03-29 18:53:00,
2013-03-29 09:03:00,72.0,-99.9,30.08,East,93,2.0,6.0,-999,-99.99,,,-99.99,,2013-03-29 19:03:00,
2013-03-29 09:13:00,73.0,-99.9,30.08,East,97,3.0,6.0,-999,-99.99,,,-99.99,,2013-03-29 19:13:00,
2013-03-29 09:23:00,74.0,-99.9,30.08,SSE,159,2.0,6.0,-999,-99.99,,,-99.99,,2013-03-29 19:23:00,
2013-03-29 09:33:00,74.0,-99.9,30.08,East,79,2.0,9.0,-999,-99.99,,,-99.99,,2013-03-29 19:33:00,
2013-03-29 09:43:00,74.0,-99.9,30.07,ENE,63,4.0,9.0,-999,-99.99,,,-99.99,,2013-03-29 19:43:00,
2013-03-29 09:53:00,74.0,-99.9,30.07,ENE,60,5.0,8.0,-999,-99.99,,,-99.99,,2013-03-29 19:53:00,
2013-03-29 10:03:00,74.0,-99.9,30.07,ENE,59,8.0,13.0,-999,-99.99,,,-99.99,,2013-03-29 20:03:00,
2013-03-29 10:12:00,75.0,-99.9,30.07,ESE,121,2.0,12.0,-999,-99.99,,,-99.99,,2013-03-29 20:12:00,
2013-03-29 10:23:00,75.0,-99.9,30.07,East,84,4.0,13.0,-999,-99.99,,,-99.99,,2013-03-29 20:23:00,
2013-03-29 10:33:00,75.0,-99.9,30.06,East,97,7.0,13.0,-999,-99.99,,,-99.99,,2013-03-29 20:33:00,
2013-03-29 10:42:00,75.0,-99.9,30.06,ESE,115,5.0,13.0,-999,-99.99,,,-99.99,,2013-03-29 20:42:00,
2013-03-29 10:52:00,75.0,-99.9,30.06,ESE,102,7.0,13.0,-999,-99.99,,,-99.99,,2013-03-29 20:52:00,
2013-03-29 11:02:00,76.0,-99.9,30.06,ESE,106,7.0,11.0,-999,-99.99,,,-99.99,,2013-03-29 21:02:00,
2013-03-29 11:12:00,76.0,-99.9,30.06,ESE,105,7.0,17.0,-999,-99.99,,,-99.99,,2013-03-29 21:12:00,
2013-03-29 11:22:00,76.0,-99.9,30.06,ESE,106,5.0,12.0,-999,-99.99,,,-99.99,,2013-03-29 21:22:00,
2013-03-29 11:33:00,76.0,-99.9,30.05,ESE,110,6.0,14.0,-999,-99.99,,,-99.99,,2013-03-29 21:33:00,
2013-03-29 11:43:00,76.0,-99.9,30.06,NE,52,6.0,12.0,-999,-99.99,,,-99.99,,2013-03-29 21:43:00,
2013-03-29 11:53:00,76.0,-99.9,30.05,ESE,111,8.0,14.0,-999,-99.99,,,-99.99,,2013-03-29 21:53:00,
2013-03-29 12:03:00,76.0,-99.9,30.05,ENE,73,7.0,12.0,-999,-99.99,,,-99.99,,2013-03-29 22:03:00,
2013-03-29 12:13:00,75.0,-99.9,30.05,ENE,59,7.0,15.0,-999,-99.99,,,-99.99,,2013-03-29 22:13:00,
2013-03-29 12:23:00,75.0,-99.9,30.05,NE,52,9.0,17.0,-999,-99.99,,,-99.99,,2013-03-29 22:23:00,
2013-03-29 12:34:00,76.0,-99.9,30.05,ENE,63,8.0,16.0,-999,-99.99,,,-99.99,,2013-03-29 22:34:00,
2013-03-29 12:43:00,76.0,-99.9,30.04,ESE,114,9.0,15.0,-999,-99.99,,,-99.99,,2013-03-29 22:43:00,
2013-03-29 12:54:00,77.0,-99.9,30.04,East,91,2.0,13.0,-999,-99.99,,,-99.99,,2013-03-29 22:54:00,
2013-03-29 13:03:00,76.0,-99.9,30.04,ENE,58,5.0,14.0,-999,-99.99,,,-99.99,,2013-03-29 23:03:00,
2013-03-29 13:12:00,76.0,-99.9,30.04,ESE,114,10.0,17.0,-999,-99.99,,,-99.99,,2013-03-29 23:12:00,
2013-03-29 13:22:00,77.0,-99.9,30.04,ESE,102,8.0,15.0,-999,-99.99,,,-99.99,,2013-03-29 23:22:00,
2013-03-29 13:32:00,78.0,-99.9,30.03,East,100,5.0,11.0,-999,-99.99,,,-99.99,,2013-03-29 23:32:00,
2013-03-29 13:43:00,78.0,-99.9,30.03,ESE,115,5.0,13.0,-999,-99.99,,,-99.99,,2013-03-29 23:43:00,
2013-03-29 13:53:00,76.0,-99.9,30.03,ESE,112,10.0,17.0,-999,-99.99,,,-99.99,,2013-03-29 23:53:00,
2013-03-29 14:03:00,76.0,-99.9,30.02,NE,52,6.0,14.0,-999,-99.99,,,-99.99,,2013-03-30 00:03:00,
2013-03-29 14:12:00,76.0,-99.9,30.02,ENE,63,6.0,11.0,-999,-99.99,,,-99.99,,2013-03-30 00:12:00,
2013-03-29 14:23:00,77.0,-99.9,30.01,East,85,6.0,16.0,-999,-99.99,,,-99.99,,2013-03-30 00:23:00,
2013-03-29 14:33:00,77.0,-99.9,30.01,ESE,102,8.0,18.0,-999,-99.99,,,-99.99,,2013-03-30 00:33:00,
2013-03-29 14:43:00,76.0,-99.9,30.01,ESE,108,9.0,14.0,-999,-99.99,,,-99.99,,2013-03-30 00:43:00,
2013-03-29 14:53:00,77.0,-99.9,30.00,ESE,106,10.0,17.0,-999,-99.99,,,-99.99,,2013-03-30 00:53:00,
2013-03-29 15:03:00,77.0,-99.9,30.00,East,91,5.0,15.0,-999,-99.99,,,-99.99,,2013-03-30 01:03:00,
2013-03-29 15:13:00,76.0,-99.9,30.00,NE,50,8.0,15.0,-999,-99.99,,,-99.99,,2013-03-30 01:13:00,
2013-03-29 15:23:00,76.0,-99.9,30.00,ENE,58,7.0,11.0,-999,-99.99,,,-99.99,,2013-03-30 01:23:00,
2013-03-29 15:33:00,75.0,-99.9,30.00,ENE,61,12.0,19.0,-999,-99.99,,,-99.99,,2013-03-30 01:33:00,
2013-03-29 15:43:00,76.0,-99.9,30.00,ENE,62,11.0,18.0,-999,-99.99,,,-99.99,,2013-03-30 01:43:00,
2013-03-29 15:53:00,76.0,-99.9,30.00,ENE,70,9.0,13.0,-999,-99.99,,,-99.99,,2013-03-30 01:53:00,
2013-03-29 16:03:00,76.0,-99.9,30.00,ENE,75,5.0,13.0,-999,-99.99,,,-99.99,,2013-03-30 02:03:00,
2013-03-29 16:13:00,76.0,-99.9,30.00,NE,55,6.0,15.0,-999,-99.99,,,-99.99,,2013-03-30 02:13:00,
2013-03-29 16:22:00,76.0,-99.9,30.00,ENE,59,10.0,17.0,-999,-99.99,,,-99.99,,2013-03-30 02:22:00,
2013-03-29 16:33:00,76.0,-99.9,30.00,ENE,57,8.0,15.0,-999,-99.99,,,-99.99,,2013-03-30 02:33:00,
2013-03-29 16:43:00,76.0,-99.9,30.00,ENE,59,7.0,15.0,-999,-99.99,,,-99.99,,2013-03-30 02:43:00,
2013-03-29 16:53:00,75.0,-99.9,30.01,NE,52,11.0,18.0,-999,-99.99,,,-99.99,,2013-03-30 02:53:00,
2013-03-29 17:03:00,74.0,-99.9,30.01,NE,48,10.0,18.0,-999,-99.99,,,-99.99,,2013-03-30 03:03:00,
2013-03-29 17:12:00,75.0,-99.9,30.01,ENE,59,8.0,18.0,-999,-99.99,,,-99.99,,2013-03-30 03:12:00,
2013-03-29 17:22:00,75.0,-99.9,30.01,NE,53,7.0,11.0,-999,-99.99,,,-99.99,,2013-03-30 03:22:00,
2013-03-29 17:33:00,74.0,-99.9,30.01,NE,48,11.0,17.0,-999,-99.99,,,-99.99,,2013-03-30 03:33:00,
2013-03-29 17:44:00,74.0,-99.9,30.01,NE,43,8.0,15.0,-999,-99.99,,,-99.99,,2013-03-30 03:44:00,
2013-03-29 17:53:00,73.0,-99.9,30.01,NE,51,9.0,14.0,-999,-99.99,,,-99.99,,2013-03-30 03:53:00,
2013-03-29 18:02:00,73.0,-99.9,30.01,NE,37,5.0,12.0,-999,-99.99,,,-99.99,,2013-03-30 04:02:00,
2013-03-29 18:13:00,73.0,-99.9,30.02,NE,47,9.0,15.0,-999,-99.99,,,-99.99,,2013-03-30 04:13:00,
2013-03-29 18:23:00,73.0,-99.9,30.02,NE,52,6.0,11.0,-999,-99.99,,,-99.99,,2013-03-30 04:23:00,
2013-03-29 18:33:00,74.0,-99.9,30.02,ENE,72,3.0,9.0,-999,-99.99,,,-99.99,,2013-03-30 04:33:00,
2013-03-29 18:43:00,73.0,-99.9,30.03,ENE,70,5.0,11.0,-999,-99.99,,,-99.99,,2013-03-30 04:43:00,
2013-03-29 18:53:00,73.0,-99.9,30.03,NE,49,6.0,10.0,-999,-99.99,,,-99.99,,2013-03-30 04:53:00,
2013-03-29 19:02:00,73.0,-99.9,30.03,NE,44,5.0,9.0,-999,-99.99,,,-99.99,,2013-03-30 05:02:00,
2013-03-29 19:12:00,73.0,-99.9,30.03,NE,34,7.0,11.0,-999,-99.99,,,-99.99,,2013-03-30 05:12:00,
2013-03-29 19:22:00,72.0,-99.9,30.04,NE,53,8.0,13.0,-999,-99.99,,,-99.99,,2013-03-30 05:22:00,
2013-03-29 19:32:00,73.0,-99.9,30.03,NE,56,3.0,7.0,-999,-99.99,,,-99.99,,2013-03-30 05:32:00,
2013-03-29 19:42:00,72.0,-99.9,30.04,East,92,4.0,16.0,-999,-99.99,,,-99.99,,2013-03-30 05:42:00,
2013-03-29 19:52:00,72.0,-99.9,30.04,ENE,62,7.0,13.0,-999,-99.99,,,-99.99,,2013-03-30 05:52:00,
2013-03-29 20:02:00,72.0,-99.9,30.04,NE,42,4.0,8.0,-999,-99.99,,,-99.99,,2013-03-30 06:02:00,
2013-03-29 20:12:00,72.0,-99.9,30.04,NE,54,3.0,8.0,-999,-99.99,,,-99.99,,2013-03-30 06:12:00,
2013-03-29 20:23:00,72.0,-99.9,30.05,NE,51,5.0,11.0,-999,-99.99,,,-99.99,,2013-03-30 06:23:00,
2013-03-29 20:32:00,72.0,-99.9,30.05,NNE,21,6.0,11.0,-999,-99.99,,,-99.99,,2013-03-30 06:32:00,
2013-03-29 20:42:00,72.0,-99.9,30.06,NE,34,7.0,10.0,-999,-99.99,,,-99.99,,2013-03-30 06:42:00,
2013-03-29 20:52:00,72.0,-99.9,30.06,ENE,70,3.0,7.0,-999,-99.99,,,-99.99,,2013-03-30 06:52:00,
2013-03-29 21:02:00,72.0,-99.9,30.06,NE,46,2.0,6.0,-999,-99.99,,,-99.99,,2013-03-30 07:02:00,
2013-03-29 21:12:00,72.0,-99.9,30.06,NE,48,4.0,7.0,-999,-99.99,,,-99.99,,2013-03-30 07:12:00,
2013-03-29 21:22:00,72.0,-99.9,30.06,NE,38,5.0,7.0,-999,-99.99,,,-99.99,,2013-03-30 07:22:00,
2013-03-29 21:32:00,72.0,-99.9,30.07,SSE,161,1.0,2.0,-999,-99.99,,,-99.99,,2013-03-30 07:32:00,
2013-03-29 21:42:00,72.0,-99.9,30.07,NE,45,1.0,2.0,-999,-99.99,,,-99.99,,2013-03-30 07:42:00,
2013-03-29 21:52:00,72.0,-99.9,30.07,North,-999,-999.0,-999.0,-999,-99.99,,,-99.99,,2013-03-30 07:52:00,
2013-03-29 22:02:00,72.0,-99.9,30.07,NE,50,4.0,6.0,-999,-99.99,,,-99.99,,2013-03-30 08:02:00,
2013-03-29 22:12:00,72.0,-99.9,30.07,East,95,1.0,4.0,-999,-99.99,,,-99.99,,2013-03-30 08:12:00,
2013-03-29 22:22:00,72.0,-99.9,30.07,ENE,64,1.0,2.0,-999,-99.99,,,-99.99,,2013-03-30 08:22:00,
2013-03-29 22:32:00,72.0,-99.9,30.08,ENE,62,2.0,2.0,-999,-99.99,,,-99.99,,2013-03-30 08:32:00,
2013-03-29 22:42:00,72.0,-99.9,30.08,NNW,332,2.0,3.0,-999,-99.99,,,-99.99,,2013-03-30 08:42:00,
2013-03-29 22:53:00,72.0,-99.9,30.08,ENE,72,3.0,5.0,-999,-99.99,,,-99.99,,2013-03-30 08:53:00,
2013-03-29 23:03:00,72.0,-99.9,30.08,ENE,65,3.0,4.0,-999,-99.99,,,-99.99,,2013-03-30 09:03:00,
2013-03-29 23:12:00,72.0,-99.9,30.08,ESE,121,2.0,4.0,-999,-99.99,,,-99.99,,2013-03-30 09:12:00,
2013-03-29 23:23:00,72.0,-99.9,30.08,East,97,1.0,4.0,-999,-99.99,,,-99.99,,2013-03-30 09:23:00,
2013-03-29 23:33:00,72.0,-99.9,30.08,SW,227,0.0,2.0,-999,-99.99,,,-99.99,,2013-03-30 09:33:00,
2013-03-29 23:43:00,72.0,-99.9,30.08,West,268,2.0,3.0,-999,-99.99,,,-99.99,,2013-03-30 09:43:00,
2013-03-29 23:54:00,72.0,-99.9,30.08,WSW,256,-999.0,0.0,-999,-99.99,,,-99.99,,2013-03-30 09:54:00,